User: anonymous   Login
Location: NJAA Observatory
(40.6819°N, 74.8979°W)
Time: 09:40:49
(UTC-04:00)
Language:

Meteor 2-9 Rocket - Orbit

View from above orbital plane
View from above orbital plane
View from above satellite
View from above satellite

Ground track
Ground track

The orbit data is extracted from the following two-line orbital elements,

1 13719U 82116B   15087.51540358  .00000144  00000-0  66335-4 0  9997
2 13719 081.2523 075.4596 0072443 147.2557 334.0446 14.14527705665615
Epoch (UTC): 28 March 2015 12:22:10
Eccentricity: 0.0072443
inclination: 81.2523°
perigee height: 791 km
apogee height: 896 km
right ascension of ascending node: 75.4596°
argument of perigee: 147.2557°
revolutions per day: 14.14527705
mean anomaly at epoch: 334.0446°
orbit number at epoch: 66561

The dashed part of the orbit path shows where the satellite is in the earth's shadow,  

DLR